GCDDG EGHR-EGHR

Flight info

Callsign GCDDG
Flight time 0h 3m
Altitude 2000
Route VFR CIRCUITS
Aircraft C172/L-SFG/C

Departure

Time 2026-04-26 09:05
Airport Goodwood Aerodrome (EGHR)

Arrival

Time 2026-04-26 09:08
Airport Goodwood Aerodrome (EGHR)
Time Latitude Longitude Altitude Speed Heading
2026-04-26 08:57 50.85794 -0.75547 99 ft 0 kts 350°
2026-04-26 09:01 50.85816 -0.75547 100 ft 5 kts 350°
2026-04-26 09:01 50.85829 -0.75599 100 ft 8 kts 241°
2026-04-26 09:01 50.85804 -0.75657 99 ft 7 kts 226°
2026-04-26 09:01 50.85769 -0.75714 99 ft 7 kts 226°
2026-04-26 09:02 50.85747 -0.75776 99 ft 5 kts 240°
2026-04-26 09:02 50.85740 -0.75850 100 ft 13 kts 269°
2026-04-26 09:02 50.85763 -0.75966 102 ft 5 kts 316°
2026-04-26 09:02 50.85787 -0.76001 103 ft 6 kts 302°
2026-04-26 09:03 50.85799 -0.76055 104 ft 3 kts 281°
2026-04-26 09:03 50.85801 -0.76079 104 ft 10 kts 270°
2026-04-26 09:03 50.85812 -0.76182 104 ft 4 kts 300°
2026-04-26 09:03 50.85818 -0.76193 105 ft 0 kts 306°
2026-04-26 09:04 50.85839 -0.76216 106 ft 13 kts 342°
2026-04-26 09:04 50.85908 -0.76151 106 ft 10 kts 45°
2026-04-26 09:04 50.86027 -0.75907 105 ft 52 kts 51°
2026-04-26 09:04 50.86291 -0.75483 284 ft 56 kts 53°
2026-04-26 09:05 50.86560 -0.74995 500 ft 62 kts 56°
2026-04-26 09:05 50.86821 -0.74525 820 ft 54 kts 54°
2026-04-26 09:05 50.87092 -0.74103 975 ft 66 kts 54°
2026-04-26 09:05 50.87515 -0.73904 1189 ft 85 kts 336°
2026-04-26 09:06 50.88052 -0.74594 1153 ft 108 kts 324°
2026-04-26 09:06 50.88482 -0.75566 1328 ft 107 kts 297°
2026-04-26 09:06 50.88495 -0.76763 1431 ft 114 kts 250°
2026-04-26 09:06 50.88206 -0.78013 1132 ft 120 kts 240°
2026-04-26 09:07 50.87670 -0.78719 991 ft 89 kts 182°
2026-04-26 09:07 50.87242 -0.78271 711 ft 81 kts 115°
2026-04-26 09:07 50.87000 -0.77508 506 ft 71 kts 121°
2026-04-26 09:07 50.86678 -0.76971 325 ft 65 kts 130°
2026-04-26 09:08 50.86348 -0.76509 153 ft 64 kts 127°
2026-04-26 09:08 50.86067 -0.76093 301 ft 52 kts 126°
2026-04-26 09:08 50.85876 -0.75737 511 ft 46 kts 124°
2026-04-26 09:08 50.85615 -0.75346 763 ft 55 kts 127°
2026-04-26 09:09 50.85347 -0.74951 1055 ft 50 kts 134°
2026-04-26 09:09 50.85098 -0.74491 1183 ft 70 kts 86°
2026-04-26 09:09 50.85437 -0.73803 1308 ft 90 kts 50°
2026-04-26 09:09 50.85998 -0.73321 1340 ft 109 kts
2026-04-26 09:10 50.86705 -0.73883 1345 ft 117 kts 325°
2026-04-26 09:10 50.87344 -0.74719 1194 ft 116 kts 318°
2026-04-26 09:10 50.87742 -0.75791 1024 ft 114 kts 289°
2026-04-26 09:10 50.87713 -0.76839 1174 ft 81 kts 240°
2026-04-26 09:11 50.87344 -0.77481 1021 ft 75 kts 202°
2026-04-26 09:11 50.86958 -0.77294 664 ft 69 kts 138°
2026-04-26 09:11 50.86576 -0.76841 364 ft 68 kts 129°
2026-04-26 09:11 50.86246 -0.76366 126 ft 59 kts 130°
2026-04-26 09:12 50.86008 -0.76018 105 ft 39 kts 140°
2026-04-26 09:12 50.85732 -0.75810 229 ft 39 kts 134°
2026-04-26 09:12 50.85508 -0.75456 360 ft 49 kts 127°
2026-04-26 09:12 50.85265 -0.75096 669 ft 41 kts 123°
2026-04-26 09:13 50.85168 -0.74528 744 ft 70 kts 93°
2026-04-26 09:13 50.85402 -0.73847 1094 ft 70 kts 47°
2026-04-26 09:13 50.85931 -0.73631 1297 ft 92 kts 13°
2026-04-26 09:13 50.86629 -0.73902 1356 ft 112 kts 343°
2026-04-26 09:14 50.87305 -0.74382 1321 ft 99 kts 343°
2026-04-26 09:14 50.87878 -0.74814 1269 ft 88 kts 337°
2026-04-26 09:14 50.88197 -0.75558 1234 ft 88 kts 272°
2026-04-26 09:14 50.88023 -0.76405 1191 ft 89 kts 228°
2026-04-26 09:15 50.87596 -0.77114 1043 ft 90 kts 218°
2026-04-26 09:15 50.87121 -0.77456 758 ft 70 kts 156°
2026-04-26 09:15 50.86720 -0.77043 430 ft 70 kts 135°
2026-04-26 09:15 50.86366 -0.76537 174 ft 67 kts 134°
2026-04-26 09:16 50.86073 -0.76122 108 ft 46 kts 135°
2026-04-26 09:16 50.85939 -0.75898 104 ft 19 kts 121°
2026-04-26 09:16 50.85874 -0.75743 101 ft 15 kts 123°
2026-04-26 09:16 50.85820 -0.75651 100 ft 5 kts 114°
2026-04-26 09:17 50.85831 -0.75622 100 ft 4 kts 49°
2026-04-26 09:17 50.85835 -0.75602 100 ft 4 kts 79°
2026-04-26 09:17 50.85835 -0.75599 100 ft 0 kts 78°